STARLINK-38061, 69715

Orbit data source: Space-Track

STARLINK-38061, 69715 is a payload satellite owned by SpaceX/Seattle (US) in SSO that was launched on Sun, 28 Jun 2026 UTC via an FALCON 9 launch vehicle from the Air Force Western Test Range (AFWTR). Payload-class satellites include a variety of spacecraft equipped with specific instruments for various scientific and technological missions. These include communications satellites like Starlink; space stations such as the ISS; scientific satellites like the Hubble; Earth observation satellites from companies like Planet Labs, Umbra, and HawkEye 360; GPS; miniature CubeSats for education and research; and military/defense satellites.

Loading next visibility...
Identifier
69715, 2026-147M
Orbit
SSO
Country
Flag of USUS
Related business
Manufacturer
SpaceX/Seattle
Mission
Operational spacecraft
Bus & Motor
STARLINK V2MO, Unknown motor
Mass
575 kg wet, ~530 kg dry
Launch date (UTC)
2026-06-28 (3 weeks ago)
Launch vehicle
FALCON 9
Launch site
Air Force Western Test Range (AFWTR)
Object type
Payload
Rocket body
Debris
Shape & HBR
Unknown shape, 17.7 m
Radar Cross Section
Large (>1 m²)

Expand to show TLE details & history
Last TLE update: 16 hours ago

TLE from 16 hours ago
0 STARLINK-38061
1 69715U 26147M   26202.55367382  .00364588  00000-0  17355-2 0  9996
2 69715  97.2828 239.3312 0009618 337.1200  22.9639 15.81875300  4866
Epoch: 2026-07-21T13:17Z
TLE epoch observation values (Epoch: 2026-07-21T13:17:17.418Z)
Latitude
0.00001°
Longitude
100.68692°
Altitude
322.378 km
Speed
7.718 km/s
True Right ascension
15h 57m 19s
True Declination
0° 00' 00"
Sunlit
Object was in full shadow at epoch
Visualization orbit readout
Latitude
Unknown
Longitude
Unknown
Altitude
Unknown
Speed
Unknown
Apparent Right ascension
Unknown
Apparent Declination
Unknown
Sunlit
N/A
Visualization observer readout
Local Sidereal Time
18:25:52
Azimuth
Unknown
Elevation
Unknown
Doppler factor
Unknown
Orbital elements
Apogee altitude
328.46 km
Perigee altitude
315.572 km
Semi-major axis
6,700.153 km
Eccentricity
0.00096
Inclination
97.2828°
RAAN
239.3312°
Arg. of periapsis
337.12°
True anomaly
23.00695°
Mean anomaly
22.9639°
Eccentric anomaly
22.98542°
Mean motion
3.95746 °/min
Orbital period
90.97 mins
BSTAR
0.0017355
Loading maneuver chart data...
Computing Atmospheric mass density...
Loading historical data...
Loading historical data...
Loading historical data...
Loading historical data...
Loading historical data...
Loading historical data...
Loading historical data...

Documentation

Showing up to 5 results
|